Starlink 3637

operational
NORAD ID: 51799 Int'l Des: 2022-017 Owner: SPXS Country: US Constellation: starlink
LEOCIRCULAR

关于 Starlink 3637

正在加载描述...

实时位置

正在加载3D地球...

即将过境

高度历史

Altitude vs Time

uPlot chart will show altitude changes over time

两行轨道根数

1 51799U 22017AH 25306.44267582 .00007185 00000-0 46899-3 0 9997
2 51799 53.2160 200.3555 0001470 88.9875 271.1285 15.08846645204714
Epoch: Nov 2, 2025 • Age: 10 hours

当前状态

高度 542.1 km
速度 7.60 km/s
星下点 37.98°N, 10.44°W
发射日期 Feb 25, 2022
运行时间 3.6 years
类型 internet

技术详情

分类 Payload
质量 297.00 kg
干质量 275.00 kg
总质量 297.00 kg
长度 0.20 m
直径 2.80 m
跨度 9.00 m
形状 Box + pan
制造商 SPXS
平台类型 Starlink
阶段状态 In Orbit
所有者/国家 SPXS/US

大型星座

Loading constellations...